Time,TemperatureF,DewpointF,PressureIn,WindDirection,WindDirectionDegrees,WindSpeedMPH,WindSpeedGustMPH,Humidity,HourlyPrecipIn,Conditions,Clouds,dailyrainin,SoftwareType,DateUTC
2013-11-12 00:02:00,27.3,20.8,-100.00,ENE,58,7.0,21.0,76,0.00,,,0.00,meteohub,2013-11-12 06:02:00,
2013-11-12 00:07:00,27.3,21.0,-100.00,NW,311,16.0,21.0,77,0.00,,,0.00,meteohub,2013-11-12 06:07:00,
2013-11-12 00:12:00,27.1,20.8,-100.00,NNW,328,12.0,21.0,77,0.00,,,0.00,meteohub,2013-11-12 06:12:00,
2013-11-12 00:17:00,27.0,20.7,-100.00,SSW,203,3.0,21.0,77,0.00,,,0.00,meteohub,2013-11-12 06:17:00,
2013-11-12 00:22:00,26.4,19.9,-100.00,SSW,209,6.0,18.0,76,0.00,,,0.00,meteohub,2013-11-12 06:22:00,
2013-11-12 00:27:00,26.2,19.9,-100.00,NNE,29,6.0,19.0,77,0.00,,,0.00,meteohub,2013-11-12 06:27:00,
2013-11-12 00:32:00,26.1,19.8,-100.00,NW,304,10.0,22.0,77,0.00,,,0.00,meteohub,2013-11-12 06:32:00,
2013-11-12 00:37:00,25.9,19.8,-100.00,North,355,14.0,22.0,77,0.00,,,0.00,meteohub,2013-11-12 06:37:00,
2013-11-12 00:43:00,25.5,19.4,-100.00,NW,315,5.0,22.0,77,0.00,,,0.00,meteohub,2013-11-12 06:43:00,
2013-11-12 00:48:00,25.3,19.2,-100.00,NNW,336,9.0,18.0,77,0.00,,,0.00,meteohub,2013-11-12 06:48:00,
2013-11-12 00:53:00,25.2,19.0,-100.00,NNW,344,15.0,18.0,77,0.00,,,0.00,meteohub,2013-11-12 06:53:00,
2013-11-12 00:58:00,25.0,18.5,-100.00,NE,49,4.0,18.0,76,0.00,,,0.00,meteohub,2013-11-12 06:58:00,
2013-11-12 01:03:00,25.0,18.9,-100.00,NW,319,4.0,18.0,77,0.00,,,0.00,meteohub,2013-11-12 07:03:00,
2013-11-12 01:08:00,24.8,18.7,-100.00,East,80,5.0,17.0,77,0.00,,,0.00,meteohub,2013-11-12 07:08:00,
2013-11-12 01:13:00,24.6,18.1,-100.00,NNE,12,5.0,15.0,76,0.00,,,0.00,meteohub,2013-11-12 07:13:00,
2013-11-12 01:18:00,24.4,18.0,-100.00,NNW,333,9.0,15.0,76,0.00,,,0.00,meteohub,2013-11-12 07:18:00,
2013-11-12 01:23:00,24.4,18.0,-100.00,WNW,296,10.0,17.0,76,0.00,,,0.00,meteohub,2013-11-12 07:23:00,
2013-11-12 01:28:00,24.3,17.8,-100.00,ENE,78,3.0,17.0,76,0.00,,,0.00,meteohub,2013-11-12 07:28:00,
2013-11-12 01:33:00,24.3,17.8,-100.00,NNW,329,14.0,17.0,76,0.00,,,0.00,meteohub,2013-11-12 07:33:00,
2013-11-12 01:38:00,24.1,17.6,-100.00,NW,324,9.0,17.0,76,0.00,,,0.00,meteohub,2013-11-12 07:38:00,
2013-11-12 01:43:00,24.1,17.2,-100.00,NW,315,3.0,17.0,75,0.00,,,0.00,meteohub,2013-11-12 07:43:00,
2013-11-12 01:48:00,24.1,17.2,-100.00,NW,321,11.0,17.0,75,0.00,,,0.00,meteohub,2013-11-12 07:48:00,
2013-11-12 01:53:00,23.9,16.9,-100.00,WNW,296,11.0,16.0,74,0.00,,,0.00,meteohub,2013-11-12 07:53:00,
2013-11-12 01:58:00,23.7,16.7,-100.00,ENE,76,6.0,15.0,74,0.00,,,0.00,meteohub,2013-11-12 07:58:00,
2013-11-12 02:03:00,23.7,16.3,-100.00,NNW,327,7.0,15.0,73,0.00,,,0.00,meteohub,2013-11-12 08:03:00,
2013-11-12 02:08:00,23.5,16.2,-100.00,NNW,331,7.0,16.0,73,0.00,,,0.00,meteohub,2013-11-12 08:08:00,
2013-11-12 02:13:00,23.5,16.2,-100.00,NW,321,6.0,16.0,73,0.00,,,0.00,meteohub,2013-11-12 08:13:00,
2013-11-12 02:18:00,23.5,16.2,-100.00,NNW,333,11.0,17.0,73,0.00,,,0.00,meteohub,2013-11-12 08:18:00,
2013-11-12 02:23:00,23.5,15.8,-100.00,NW,317,7.0,17.0,72,0.00,,,0.00,meteohub,2013-11-12 08:23:00,
2013-11-12 02:28:00,23.4,15.6,-100.00,NW,318,5.0,17.0,72,0.00,,,0.00,meteohub,2013-11-12 08:28:00,
2013-11-12 02:33:00,23.2,15.8,-100.00,WNW,302,4.0,14.0,73,0.00,,,0.00,meteohub,2013-11-12 08:33:00,
2013-11-12 02:38:00,22.8,15.8,-100.00,NW,323,6.0,13.0,74,0.00,,,0.00,meteohub,2013-11-12 08:38:00,
2013-11-12 02:43:00,22.5,15.8,-100.00,NW,315,5.0,12.0,75,0.00,,,0.00,meteohub,2013-11-12 08:43:00,
2013-11-12 02:48:00,22.3,15.8,-100.00,NW,306,6.0,12.0,76,0.00,,,0.00,meteohub,2013-11-12 08:48:00,
2013-11-12 02:53:00,21.9,15.8,-100.00,WNW,283,4.0,12.0,77,0.00,,,0.00,meteohub,2013-11-12 08:53:00,
2013-11-12 02:58:00,21.7,15.6,-100.00,NW,322,3.0,10.0,77,0.00,,,0.00,meteohub,2013-11-12 08:58:00,
2013-11-12 03:03:00,21.6,15.8,-100.00,NW,304,6.0,9.0,78,0.00,,,0.00,meteohub,2013-11-12 09:03:00,
2013-11-12 03:08:00,21.6,15.8,-100.00,NW,304,7.0,10.0,78,0.00,,,0.00,meteohub,2013-11-12 09:08:00,
2013-11-12 03:13:00,21.4,15.6,-100.00,WNW,295,3.0,10.0,78,0.00,,,0.00,meteohub,2013-11-12 09:13:00,
2013-11-12 03:18:00,21.4,15.6,-100.00,WNW,302,5.0,11.0,78,0.00,,,0.00,meteohub,2013-11-12 09:18:00,
2013-11-12 03:23:00,21.2,15.4,-100.00,NNW,329,6.0,11.0,78,0.00,,,0.00,meteohub,2013-11-12 09:23:00,
2013-11-12 03:28:00,21.2,15.4,-100.00,NW,313,5.0,11.0,78,0.00,,,0.00,meteohub,2013-11-12 09:28:00,
2013-11-12 03:33:00,21.0,15.3,-100.00,WNW,294,5.0,13.0,78,0.00,,,0.00,meteohub,2013-11-12 09:33:00,
2013-11-12 03:38:00,21.0,15.3,-100.00,NW,319,3.0,13.0,78,0.00,,,0.00,meteohub,2013-11-12 09:38:00,
2013-11-12 03:43:00,20.8,15.1,-100.00,NW,326,4.0,10.0,78,0.00,,,0.00,meteohub,2013-11-12 09:43:00,
2013-11-12 03:48:00,20.8,15.1,-100.00,NW,304,3.0,10.0,78,0.00,,,0.00,meteohub,2013-11-12 09:48:00,
2013-11-12 03:53:00,20.7,15.3,-100.00,WNW,303,5.0,10.0,79,0.00,,,0.00,meteohub,2013-11-12 09:53:00,
2013-11-12 03:58:00,20.7,15.3,-100.00,NW,309,2.0,11.0,79,0.00,,,0.00,meteohub,2013-11-12 09:58:00,
2013-11-12 04:03:00,20.5,15.1,-100.00,West,278,5.0,11.0,79,0.00,,,0.00,meteohub,2013-11-12 10:03:00,
2013-11-12 04:08:00,20.3,14.9,-100.00,WNW,293,3.0,10.0,79,0.00,,,0.00,meteohub,2013-11-12 10:08:00,
2013-11-12 04:13:00,20.3,14.9,-100.00,NW,309,4.0,12.0,79,0.00,,,0.00,meteohub,2013-11-12 10:13:00,
2013-11-12 04:18:00,20.1,14.7,-100.00,NNW,346,6.0,12.0,79,0.00,,,0.00,meteohub,2013-11-12 10:18:00,
2013-11-12 04:23:00,20.1,14.7,-100.00,NNW,340,5.0,12.0,79,0.00,,,0.00,meteohub,2013-11-12 10:23:00,
2013-11-12 04:28:00,19.9,14.2,-100.00,NW,309,3.0,11.0,78,0.00,,,0.00,meteohub,2013-11-12 10:28:00,
2013-11-12 04:33:00,19.8,14.4,-100.00,WNW,294,3.0,13.0,79,0.00,,,0.00,meteohub,2013-11-12 10:33:00,
2013-11-12 04:38:00,19.8,14.4,-100.00,WNW,298,5.0,13.0,79,0.00,,,0.00,meteohub,2013-11-12 10:38:00,
2013-11-12 04:43:00,19.8,14.4,-100.00,WNW,303,3.0,13.0,79,0.00,,,0.00,meteohub,2013-11-12 10:43:00,
2013-11-12 04:48:00,19.8,14.4,-100.00,NW,305,4.0,11.0,79,0.00,,,0.00,meteohub,2013-11-12 10:48:00,
2013-11-12 04:53:00,19.6,14.2,-100.00,NW,317,8.0,11.0,79,0.00,,,0.00,meteohub,2013-11-12 10:53:00,
2013-11-12 04:58:00,19.6,14.2,-100.00,NW,306,10.0,11.0,79,0.00,,,0.00,meteohub,2013-11-12 10:58:00,
2013-11-12 05:03:00,19.4,14.0,-100.00,WNW,296,3.0,11.0,79,0.00,,,0.00,meteohub,2013-11-12 11:03:00,
2013-11-12 05:08:00,19.2,13.8,-100.00,WNW,302,5.0,11.0,79,0.00,,,0.00,meteohub,2013-11-12 11:08:00,
2013-11-12 05:13:00,19.2,13.8,-100.00,WNW,294,4.0,12.0,79,0.00,,,0.00,meteohub,2013-11-12 11:13:00,
2013-11-12 05:18:00,19.0,13.6,-100.00,West,271,2.0,12.0,79,0.00,,,0.00,meteohub,2013-11-12 11:18:00,
2013-11-12 05:23:00,19.0,13.6,-100.00,NNW,327,6.0,12.0,79,0.00,,,0.00,meteohub,2013-11-12 11:23:00,
2013-11-12 05:28:00,19.0,13.6,-100.00,WNW,288,4.0,10.0,79,0.00,,,0.00,meteohub,2013-11-12 11:28:00,
2013-11-12 05:33:00,19.0,13.6,-100.00,NW,307,5.0,10.0,79,0.00,,,0.00,meteohub,2013-11-12 11:33:00,
2013-11-12 05:38:00,18.9,13.5,-100.00,WNW,302,3.0,9.0,79,0.00,,,0.00,meteohub,2013-11-12 11:38:00,
2013-11-12 05:43:00,18.9,13.5,-100.00,NW,313,3.0,11.0,79,0.00,,,0.00,meteohub,2013-11-12 11:43:00,
2013-11-12 05:48:00,18.9,13.5,-100.00,WNW,294,4.0,11.0,79,0.00,,,0.00,meteohub,2013-11-12 11:48:00,
2013-11-12 05:53:00,18.9,13.5,-100.00,WNW,302,2.0,11.0,79,0.00,,,0.00,meteohub,2013-11-12 11:53:00,
2013-11-12 05:58:00,18.7,13.3,-100.00,NW,317,4.0,11.0,79,0.00,,,0.00,meteohub,2013-11-12 11:58:00,
2013-11-12 06:03:00,18.7,13.3,-100.00,NW,326,6.0,11.0,79,0.00,,,0.00,meteohub,2013-11-12 12:03:00,
2013-11-12 06:08:00,18.7,13.3,-100.00,NW,310,4.0,11.0,79,0.00,,,0.00,meteohub,2013-11-12 12:08:00,
2013-11-12 06:13:00,18.5,13.1,-100.00,NW,309,8.0,10.0,79,0.00,,,0.00,meteohub,2013-11-12 12:13:00,
2013-11-12 06:18:00,18.5,13.1,-100.00,WNW,295,7.0,11.0,79,0.00,,,0.00,meteohub,2013-11-12 12:18:00,
2013-11-12 06:23:00,18.3,12.9,-100.00,NW,306,10.0,15.0,79,0.00,,,0.00,meteohub,2013-11-12 12:23:00,
2013-11-12 06:28:00,18.3,13.3,-100.00,NW,309,3.0,15.0,80,0.00,,,0.00,meteohub,2013-11-12 12:28:00,
2013-11-12 06:33:00,18.3,13.3,-100.00,NW,310,3.0,15.0,80,0.00,,,0.00,meteohub,2013-11-12 12:33:00,
2013-11-12 06:38:00,18.3,13.3,-100.00,NW,311,5.0,12.0,80,0.00,,,0.00,meteohub,2013-11-12 12:38:00,
2013-11-12 06:43:00,18.1,12.7,-100.00,NE,34,7.0,10.0,79,0.00,,,0.00,meteohub,2013-11-12 12:43:00,
2013-11-12 06:48:00,18.1,13.1,-100.00,West,280,3.0,10.0,80,0.00,,,0.00,meteohub,2013-11-12 12:48:00,
2013-11-12 06:53:00,18.1,13.1,-100.00,WNW,300,2.0,10.0,80,0.00,,,0.00,meteohub,2013-11-12 12:53:00,
2013-11-12 06:58:00,18.1,13.1,-100.00,NNW,338,5.0,10.0,80,0.00,,,0.00,meteohub,2013-11-12 12:58:00,
2013-11-12 07:03:00,18.1,13.1,-100.00,NW,323,4.0,10.0,80,0.00,,,0.00,meteohub,2013-11-12 13:03:00,
2013-11-12 07:08:00,18.1,13.1,-100.00,NW,315,5.0,10.0,80,0.00,,,0.00,meteohub,2013-11-12 13:08:00,
2013-11-12 07:13:00,18.1,13.1,-100.00,WNW,299,4.0,10.0,80,0.00,,,0.00,meteohub,2013-11-12 13:13:00,
2013-11-12 07:18:00,18.3,13.3,-100.00,NW,306,5.0,10.0,80,0.00,,,0.00,meteohub,2013-11-12 13:18:00,
2013-11-12 07:23:00,18.9,13.6,-100.00,NW,313,5.0,12.0,80,0.00,,,0.00,meteohub,2013-11-12 13:23:00,
2013-11-12 07:28:00,19.4,14.2,-100.00,WNW,300,3.0,12.0,80,0.00,,,0.00,meteohub,2013-11-12 13:28:00,
2013-11-12 07:33:00,19.8,14.4,-100.00,WNW,299,2.0,12.0,79,0.00,,,0.00,meteohub,2013-11-12 13:33:00,
2013-11-12 07:38:00,20.1,14.4,-100.00,NW,311,3.0,11.0,78,0.00,,,0.00,meteohub,2013-11-12 13:38:00,
2013-11-12 07:43:00,20.5,14.7,-100.00,NW,315,9.0,11.0,78,0.00,,,0.00,meteohub,2013-11-12 13:43:00,
2013-11-12 07:48:00,20.8,14.7,-100.00,NW,308,5.0,13.0,77,0.00,,,0.00,meteohub,2013-11-12 13:48:00,
2013-11-12 07:53:00,21.4,15.3,-100.00,NW,315,7.0,13.0,77,0.00,,,0.00,meteohub,2013-11-12 13:53:00,
2013-11-12 07:58:00,21.7,15.3,-100.00,NNW,334,6.0,13.0,76,0.00,,,0.00,meteohub,2013-11-12 13:58:00,
2013-11-12 08:04:00,21.7,15.3,-100.00,West,272,3.0,14.0,76,0.00,,,0.00,meteohub,2013-11-12 14:04:00,
2013-11-12 08:09:00,22.1,15.4,-100.00,WNW,288,7.0,14.0,75,0.00,,,0.00,meteohub,2013-11-12 14:09:00,
2013-11-12 08:14:00,22.6,16.0,-100.00,NW,313,6.0,14.0,75,0.00,,,0.00,meteohub,2013-11-12 14:14:00,
2013-11-12 08:19:00,23.2,16.2,-100.00,WNW,284,4.0,13.0,74,0.00,,,0.00,meteohub,2013-11-12 14:19:00,
2013-11-12 08:24:00,23.2,15.8,-100.00,NW,306,7.0,11.0,73,0.00,,,0.00,meteohub,2013-11-12 14:24:00,
2013-11-12 08:29:00,23.2,16.2,-100.00,NW,317,12.0,12.0,74,0.00,,,0.00,meteohub,2013-11-12 14:29:00,
2013-11-12 08:34:00,23.4,16.3,-100.00,WNW,294,4.0,15.0,74,0.00,,,0.00,meteohub,2013-11-12 14:34:00,
2013-11-12 08:39:00,23.7,16.0,-100.00,NW,314,6.0,15.0,72,0.00,,,0.00,meteohub,2013-11-12 14:39:00,
2013-11-12 08:44:00,24.1,16.3,-100.00,WSW,257,3.0,15.0,72,0.00,,,0.00,meteohub,2013-11-12 14:44:00,
2013-11-12 08:49:00,23.7,15.6,-100.00,WNW,291,6.0,13.0,71,0.00,,,0.00,meteohub,2013-11-12 14:49:00,
2013-11-12 08:54:00,24.1,16.3,-100.00,NW,322,6.0,12.0,72,0.00,,,0.00,meteohub,2013-11-12 14:54:00,
2013-11-12 08:59:00,24.4,16.7,-100.00,NW,311,4.0,12.0,72,0.00,,,0.00,meteohub,2013-11-12 14:59:00,
2013-11-12 09:04:00,24.8,17.1,-100.00,NNW,345,5.0,12.0,72,0.00,,,0.00,meteohub,2013-11-12 15:04:00,
2013-11-12 09:09:00,24.6,16.9,-100.00,WNW,284,5.0,11.0,72,0.00,,,0.00,meteohub,2013-11-12 15:09:00,
2013-11-12 09:14:00,25.3,17.2,-100.00,NW,315,3.0,11.0,71,0.00,,,0.00,meteohub,2013-11-12 15:14:00,
2013-11-12 09:19:00,25.5,17.4,-100.00,NNW,337,0.0,11.0,71,0.00,,,0.00,meteohub,2013-11-12 15:19:00,
2013-11-12 09:24:00,25.9,17.8,-100.00,NW,311,4.0,9.0,71,0.00,,,0.00,meteohub,2013-11-12 15:24:00,
2013-11-12 09:29:00,26.4,18.3,-100.00,WNW,286,3.0,9.0,71,0.00,,,0.00,meteohub,2013-11-12 15:29:00,
2013-11-12 09:34:00,27.1,18.3,-100.00,West,275,9.0,9.0,69,0.00,,,0.00,meteohub,2013-11-12 15:34:00,
2013-11-12 09:39:00,27.1,18.7,-100.00,NW,309,9.0,9.0,70,0.00,,,0.00,meteohub,2013-11-12 15:39:00,
2013-11-12 09:44:00,27.7,19.2,-100.00,WNW,290,5.0,9.0,70,0.00,,,0.00,meteohub,2013-11-12 15:44:00,
2013-11-12 09:49:00,28.0,19.6,-100.00,NW,323,6.0,10.0,70,0.00,,,0.00,meteohub,2013-11-12 15:49:00,
2013-11-12 09:54:00,27.9,18.7,-100.00,WNW,299,10.0,12.0,68,0.00,,,0.00,meteohub,2013-11-12 15:54:00,
2013-11-12 09:59:00,27.1,18.0,-100.00,NW,304,2.0,12.0,68,0.00,,,0.00,meteohub,2013-11-12 15:59:00,
2013-11-12 10:04:00,27.7,18.9,-100.00,WNW,300,5.0,11.0,69,0.00,,,0.00,meteohub,2013-11-12 16:04:00,
2013-11-12 10:09:00,28.2,19.8,-100.00,NW,313,6.0,11.0,70,0.00,,,0.00,meteohub,2013-11-12 16:09:00,
2013-11-12 10:14:00,28.2,18.7,-100.00,NW,321,10.0,11.0,67,0.00,,,0.00,meteohub,2013-11-12 16:14:00,
2013-11-12 10:19:00,28.8,19.6,-100.00,NW,318,9.0,11.0,68,0.00,,,0.00,meteohub,2013-11-12 16:19:00,
2013-11-12 10:24:00,29.1,19.6,-100.00,WNW,296,4.0,10.0,67,0.00,,,0.00,meteohub,2013-11-12 16:24:00,
2013-11-12 10:29:00,29.1,19.6,-100.00,WNW,291,5.0,10.0,67,0.00,,,0.00,meteohub,2013-11-12 16:29:00,
2013-11-12 10:34:00,29.7,20.1,-100.00,NW,307,9.0,9.0,67,0.00,,,0.00,meteohub,2013-11-12 16:34:00,
2013-11-12 10:39:00,30.6,20.5,-100.00,NW,317,3.0,9.0,66,0.00,,,0.00,meteohub,2013-11-12 16:39:00,
2013-11-12 10:44:00,30.4,19.6,-100.00,WNW,293,1.0,10.0,64,0.00,,,0.00,meteohub,2013-11-12 16:44:00,
2013-11-12 10:49:00,30.6,20.1,-100.00,NW,314,5.0,10.0,65,0.00,,,0.00,meteohub,2013-11-12 16:49:00,
2013-11-12 10:54:00,30.2,19.6,-100.00,NW,304,4.0,10.0,64,0.00,,,0.00,meteohub,2013-11-12 16:54:00,
2013-11-12 10:59:00,30.6,20.1,-100.00,NW,313,10.0,12.0,65,0.00,,,0.00,meteohub,2013-11-12 16:59:00,
2013-11-12 11:04:00,30.6,19.8,-100.00,West,279,5.0,12.0,64,0.00,,,0.00,meteohub,2013-11-12 17:04:00,
2013-11-12 11:09:00,30.4,19.2,-100.00,WNW,295,3.0,12.0,63,0.00,,,0.00,meteohub,2013-11-12 17:09:00,
2013-11-12 11:14:00,30.7,19.6,-100.00,NW,304,1.0,11.0,63,0.00,,,0.00,meteohub,2013-11-12 17:14:00,
2013-11-12 11:19:00,31.5,20.3,-100.00,WNW,299,3.0,11.0,63,0.00,,,0.00,meteohub,2013-11-12 17:19:00,
2013-11-12 11:24:00,31.6,19.0,-100.00,NW,315,5.0,11.0,59,0.00,,,0.00,meteohub,2013-11-12 17:24:00,
2013-11-12 11:29:00,31.3,18.7,-100.00,NNW,344,2.0,13.0,59,0.00,,,0.00,meteohub,2013-11-12 17:29:00,
2013-11-12 11:34:00,30.9,18.3,-100.00,NW,307,5.0,13.0,59,0.00,,,0.00,meteohub,2013-11-12 17:34:00,
2013-11-12 11:39:00,31.5,18.9,-100.00,West,277,2.0,13.0,59,0.00,,,0.00,meteohub,2013-11-12 17:39:00,
2013-11-12 11:45:00,31.8,18.3,-100.00,North,355,6.0,12.0,57,0.00,,,0.00,meteohub,2013-11-12 17:45:00,
2013-11-12 11:50:00,31.6,18.1,-100.00,WNW,295,6.0,12.0,57,0.00,,,0.00,meteohub,2013-11-12 17:50:00,
2013-11-12 11:55:00,31.6,17.8,-100.00,West,270,4.0,12.0,56,0.00,,,0.00,meteohub,2013-11-12 17:55:00,
2013-11-12 12:00:00,32.2,20.3,-100.00,WNW,296,1.0,12.0,61,0.00,,,0.00,meteohub,2013-11-12 18:00:00,
2013-11-12 12:05:00,32.5,18.5,-100.00,West,268,5.0,12.0,56,0.00,,,0.00,meteohub,2013-11-12 18:05:00,
2013-11-12 12:10:00,32.7,16.5,-100.00,WNW,284,5.0,12.0,51,0.00,,,0.00,meteohub,2013-11-12 18:10:00,
2013-11-12 12:15:00,33.3,17.1,-100.00,WSW,245,7.0,12.0,51,0.00,,,0.00,meteohub,2013-11-12 18:15:00,
2013-11-12 12:20:00,33.8,17.6,-100.00,West,281,4.0,14.0,51,0.00,,,0.00,meteohub,2013-11-12 18:20:00,
2013-11-12 12:25:00,33.6,17.4,-100.00,NNW,329,7.0,14.0,51,0.00,,,0.00,meteohub,2013-11-12 18:25:00,
2013-11-12 12:30:00,33.3,17.1,-100.00,West,265,7.0,14.0,51,0.00,,,0.00,meteohub,2013-11-12 18:30:00,
2013-11-12 12:35:00,33.4,17.8,-100.00,West,279,9.0,12.0,52,0.00,,,0.00,meteohub,2013-11-12 18:35:00,
2013-11-12 12:40:00,34.2,17.1,-100.00,NW,319,4.0,12.0,49,0.00,,,0.00,meteohub,2013-11-12 18:40:00,
2013-11-12 12:46:00,33.6,17.4,-100.00,NNW,345,9.0,11.0,51,0.00,,,0.00,meteohub,2013-11-12 18:46:00,
2013-11-12 12:51:00,33.1,16.0,-100.00,NNW,328,0.0,13.0,49,0.00,,,0.00,meteohub,2013-11-12 18:51:00,
2013-11-12 12:56:00,33.4,16.9,-100.00,West,279,4.0,13.0,50,0.00,,,0.00,meteohub,2013-11-12 18:56:00,
2013-11-12 13:01:00,34.2,17.1,-100.00,WSW,241,3.0,11.0,49,0.00,,,0.00,meteohub,2013-11-12 19:01:00,
2013-11-12 13:06:00,34.5,17.2,-100.00,WNW,300,4.0,10.0,49,0.00,,,0.00,meteohub,2013-11-12 19:06:00,
2013-11-12 13:11:00,34.3,16.2,-100.00,NW,321,3.0,14.0,47,0.00,,,0.00,meteohub,2013-11-12 19:11:00,
2013-11-12 13:16:00,34.2,17.1,-100.00,WNW,284,5.0,14.0,49,0.00,,,0.00,meteohub,2013-11-12 19:16:00,
2013-11-12 13:21:00,33.8,16.7,-100.00,NW,315,6.0,14.0,49,0.00,,,0.00,meteohub,2013-11-12 19:21:00,
2013-11-12 13:26:00,33.8,16.2,-100.00,WNW,302,0.0,11.0,48,0.00,,,0.00,meteohub,2013-11-12 19:26:00,
2013-11-12 13:31:00,33.6,16.0,-100.00,WNW,303,4.0,11.0,48,0.00,,,0.00,meteohub,2013-11-12 19:31:00,
2013-11-12 13:36:00,33.4,15.8,-100.00,NNW,330,0.0,12.0,48,0.00,,,0.00,meteohub,2013-11-12 19:36:00,
2013-11-12 13:41:00,33.6,16.0,-100.00,West,273,7.0,12.0,48,0.00,,,0.00,meteohub,2013-11-12 19:41:00,
2013-11-12 13:46:00,34.7,16.0,-100.00,WNW,292,6.0,12.0,46,0.00,,,0.00,meteohub,2013-11-12 19:46:00,
2013-11-12 13:51:00,35.2,15.4,-100.00,WNW,287,12.0,12.0,44,0.00,,,0.00,meteohub,2013-11-12 19:51:00,
2013-11-12 13:56:00,35.2,15.4,-100.00,NNW,333,10.0,13.0,44,0.00,,,0.00,meteohub,2013-11-12 19:56:00,
2013-11-12 14:01:00,34.9,15.6,-100.00,WNW,299,0.0,13.0,45,0.00,,,0.00,meteohub,2013-11-12 20:01:00,
2013-11-12 14:06:00,34.5,14.9,-100.00,NW,315,0.0,13.0,44,0.00,,,0.00,meteohub,2013-11-12 20:06:00,
2013-11-12 14:11:00,34.3,15.3,-100.00,NW,306,5.0,12.0,45,0.00,,,0.00,meteohub,2013-11-12 20:11:00,
2013-11-12 14:16:00,34.3,14.7,-100.00,WNW,302,9.0,12.0,44,0.00,,,0.00,meteohub,2013-11-12 20:16:00,
2013-11-12 14:21:00,34.2,14.5,-100.00,WNW,298,0.0,11.0,44,0.00,,,0.00,meteohub,2013-11-12 20:21:00,
2013-11-12 14:26:00,34.0,14.9,-100.00,North,355,0.0,11.0,45,0.00,,,0.00,meteohub,2013-11-12 20:26:00,
2013-11-12 14:31:00,34.2,15.1,-100.00,NNW,343,1.0,11.0,45,0.00,,,0.00,meteohub,2013-11-12 20:31:00,
2013-11-12 14:36:00,34.3,15.3,-100.00,West,281,0.0,11.0,45,0.00,,,0.00,meteohub,2013-11-12 20:36:00,
2013-11-12 14:41:00,34.3,14.7,-100.00,NW,318,0.0,10.0,44,0.00,,,0.00,meteohub,2013-11-12 20:41:00,
2013-11-12 14:46:00,34.3,14.2,-100.00,WNW,302,0.0,10.0,43,0.00,,,0.00,meteohub,2013-11-12 20:46:00,
2013-11-12 14:51:00,34.3,14.2,-100.00,WNW,294,5.0,10.0,43,0.00,,,0.00,meteohub,2013-11-12 20:51:00,
2013-11-12 14:56:00,34.2,14.0,-100.00,NE,54,0.0,15.0,43,0.00,,,0.00,meteohub,2013-11-12 20:56:00,
2013-11-12 15:01:00,34.2,15.1,-100.00,NW,324,5.0,15.0,45,0.00,,,0.00,meteohub,2013-11-12 21:01:00,
2013-11-12 15:06:00,34.3,14.7,-100.00,NW,310,5.0,10.0,44,0.00,,,0.00,meteohub,2013-11-12 21:06:00,
2013-11-12 15:11:00,34.3,14.7,-100.00,NW,311,0.0,9.0,44,0.00,,,0.00,meteohub,2013-11-12 21:11:00,
2013-11-12 15:16:00,34.3,15.3,-100.00,WNW,295,6.0,11.0,45,0.00,,,0.00,meteohub,2013-11-12 21:16:00,
2013-11-12 15:21:00,34.3,15.3,-100.00,WNW,284,0.0,11.0,45,0.00,,,0.00,meteohub,2013-11-12 21:21:00,
2013-11-12 15:26:00,34.3,15.3,-100.00,WNW,291,0.0,11.0,45,0.00,,,0.00,meteohub,2013-11-12 21:26:00,
2013-11-12 15:31:00,34.3,15.3,-100.00,WNW,285,0.0,9.0,45,0.00,,,0.00,meteohub,2013-11-12 21:31:00,
2013-11-12 15:36:00,34.3,15.3,-100.00,NNW,327,1.0,1.0,45,0.00,,,0.00,meteohub,2013-11-12 21:36:00,
2013-11-12 15:41:00,34.3,14.7,-100.00,NW,315,5.0,7.0,44,0.00,,,0.00,meteohub,2013-11-12 21:41:00,
2013-11-12 15:46:00,33.8,14.7,-100.00,WNW,303,3.0,11.0,45,0.00,,,0.00,meteohub,2013-11-12 21:46:00,
2013-11-12 15:51:00,33.6,14.5,-100.00,NW,310,4.0,11.0,45,0.00,,,0.00,meteohub,2013-11-12 21:51:00,
2013-11-12 15:56:00,33.6,15.1,-100.00,West,281,0.0,11.0,46,0.00,,,0.00,meteohub,2013-11-12 21:56:00,
2013-11-12 16:01:00,33.6,15.1,-100.00,WNW,296,0.0,10.0,46,0.00,,,0.00,meteohub,2013-11-12 22:01:00,
2013-11-12 16:06:00,33.4,14.9,-100.00,West,279,0.0,8.0,46,0.00,,,0.00,meteohub,2013-11-12 22:06:00,
2013-11-12 16:11:00,33.3,14.7,-100.00,NW,306,0.0,1.0,46,0.00,,,0.00,meteohub,2013-11-12 22:11:00,
2013-11-12 16:16:00,33.1,14.5,-100.00,WNW,300,0.0,1.0,46,0.00,,,0.00,meteohub,2013-11-12 22:16:00,
2013-11-12 16:21:00,32.7,14.2,-100.00,West,280,6.0,6.0,46,0.00,,,0.00,meteohub,2013-11-12 22:21:00,
2013-11-12 16:26:00,32.5,14.0,-100.00,WNW,289,0.0,7.0,46,0.00,,,0.00,meteohub,2013-11-12 22:26:00,
2013-11-12 16:31:00,32.5,14.5,-100.00,WNW,284,0.0,7.0,47,0.00,,,0.00,meteohub,2013-11-12 22:31:00,
2013-11-12 16:36:00,32.4,14.4,-100.00,West,269,3.0,7.0,47,0.00,,,0.00,meteohub,2013-11-12 22:36:00,
2013-11-12 16:41:00,31.8,13.5,-100.00,West,280,1.0,9.0,46,0.00,,,0.00,meteohub,2013-11-12 22:41:00,
2013-11-12 16:46:00,31.5,13.6,-100.00,West,265,0.0,9.0,47,0.00,,,0.00,meteohub,2013-11-12 22:46:00,
2013-11-12 16:51:00,30.9,13.1,-100.00,West,267,0.0,9.0,47,0.00,,,0.00,meteohub,2013-11-12 22:51:00,
2013-11-12 16:56:00,30.6,13.3,-100.00,West,273,3.0,6.0,48,0.00,,,0.00,meteohub,2013-11-12 22:56:00,
2013-11-12 17:01:00,30.4,13.5,-100.00,West,273,4.0,5.0,49,0.00,,,0.00,meteohub,2013-11-12 23:01:00,
2013-11-12 17:06:00,30.0,13.1,-100.00,West,269,2.0,5.0,49,0.00,,,0.00,meteohub,2013-11-12 23:06:00,
2013-11-12 17:11:00,30.0,13.6,-100.00,West,267,0.0,5.0,50,0.00,,,0.00,meteohub,2013-11-12 23:11:00,
2013-11-12 17:16:00,29.8,13.5,-100.00,West,267,0.0,5.0,50,0.00,,,0.00,meteohub,2013-11-12 23:16:00,
2013-11-12 17:22:00,29.7,13.3,-100.00,West,267,0.0,3.0,50,0.00,,,0.00,meteohub,2013-11-12 23:22:00,
2013-11-12 17:27:00,29.3,12.9,-100.00,West,267,0.0,3.0,50,0.00,,,0.00,meteohub,2013-11-12 23:27:00,
2013-11-12 17:32:00,28.9,12.6,-100.00,West,267,0.0,2.0,50,0.00,,,0.00,meteohub,2013-11-12 23:32:00,
2013-11-12 17:37:00,28.6,12.7,-100.00,West,267,0.0,2.0,51,0.00,,,0.00,meteohub,2013-11-12 23:37:00,
2013-11-12 17:42:00,28.2,12.4,-100.00,West,267,0.0,0.0,51,0.00,,,0.00,meteohub,2013-11-12 23:42:00,
2013-11-12 17:47:00,28.0,12.7,-100.00,West,267,0.0,0.0,52,0.00,,,0.00,meteohub,2013-11-12 23:47:00,
2013-11-12 17:52:00,28.0,12.7,-100.00,West,269,1.0,3.0,52,0.00,,,0.00,meteohub,2013-11-12 23:52:00,
2013-11-12 17:57:00,28.4,13.1,-100.00,West,268,2.0,4.0,52,0.00,,,0.00,meteohub,2013-11-12 23:57:00,
2013-11-12 18:02:00,28.4,12.6,-100.00,West,269,0.0,4.0,51,0.00,,,0.00,meteohub,2013-11-13 00:02:00,
2013-11-12 18:07:00,28.2,12.9,-100.00,West,268,0.0,4.0,52,0.00,,,0.00,meteohub,2013-11-13 00:07:00,
2013-11-12 18:12:00,28.0,12.7,-100.00,West,269,0.0,4.0,52,0.00,,,0.00,meteohub,2013-11-13 00:12:00,
2013-11-12 18:17:00,28.0,13.1,-100.00,West,269,0.0,0.0,53,0.00,,,0.00,meteohub,2013-11-13 00:17:00,
2013-11-12 18:22:00,27.9,12.9,-100.00,West,269,0.0,2.0,53,0.00,,,0.00,meteohub,2013-11-13 00:22:00,
2013-11-12 18:27:00,27.7,13.3,-100.00,West,268,0.0,2.0,54,0.00,,,0.00,meteohub,2013-11-13 00:27:00,
2013-11-12 18:32:00,27.7,14.0,-100.00,West,268,0.0,1.0,56,0.00,,,0.00,meteohub,2013-11-13 00:32:00,
2013-11-12 18:37:00,27.3,13.6,-100.00,West,269,0.0,0.0,56,0.00,,,0.00,meteohub,2013-11-13 00:37:00,
2013-11-12 18:42:00,27.1,13.1,-100.00,West,269,2.0,0.0,55,0.00,,,0.00,meteohub,2013-11-13 00:42:00,
2013-11-12 18:47:00,27.3,13.3,-100.00,West,269,4.0,4.0,55,0.00,,,0.00,meteohub,2013-11-13 00:47:00,
2013-11-12 18:52:00,27.3,13.3,-100.00,West,269,0.0,4.0,55,0.00,,,0.00,meteohub,2013-11-13 00:52:00,
2013-11-12 18:57:00,27.1,13.1,-100.00,West,273,3.0,4.0,55,0.00,,,0.00,meteohub,2013-11-13 00:57:00,
2013-11-12 19:02:00,27.1,13.5,-100.00,West,273,2.0,4.0,56,0.00,,,0.00,meteohub,2013-11-13 01:02:00,
2013-11-12 19:07:00,27.1,13.5,-100.00,West,272,3.0,4.0,56,0.00,,,0.00,meteohub,2013-11-13 01:07:00,
2013-11-12 19:12:00,27.1,13.5,-100.00,West,273,0.0,4.0,56,0.00,,,0.00,meteohub,2013-11-13 01:12:00,
2013-11-12 19:17:00,27.1,14.0,-100.00,West,273,0.0,3.0,57,0.00,,,0.00,meteohub,2013-11-13 01:17:00,
2013-11-12 19:22:00,27.0,13.8,-100.00,West,273,0.0,3.0,57,0.00,,,0.00,meteohub,2013-11-13 01:22:00,
2013-11-12 19:27:00,27.0,13.8,-100.00,West,273,1.0,3.0,57,0.00,,,0.00,meteohub,2013-11-13 01:27:00,
2013-11-12 19:32:00,27.0,13.8,-100.00,West,277,3.0,4.0,57,0.00,,,0.00,meteohub,2013-11-13 01:32:00,
2013-11-12 19:37:00,27.0,13.8,-100.00,West,276,1.0,4.0,57,0.00,,,0.00,meteohub,2013-11-13 01:37:00,
2013-11-12 19:42:00,26.8,13.6,-100.00,West,277,0.0,4.0,57,0.00,,,0.00,meteohub,2013-11-13 01:42:00,
2013-11-12 19:47:00,26.6,13.5,-100.00,West,277,0.0,4.0,57,0.00,,,0.00,meteohub,2013-11-13 01:47:00,
2013-11-12 19:52:00,26.4,13.6,-100.00,West,276,0.0,4.0,58,0.00,,,0.00,meteohub,2013-11-13 01:52:00,
2013-11-12 19:57:00,26.2,13.1,-100.00,West,276,0.0,2.0,57,0.00,,,0.00,meteohub,2013-11-13 01:57:00,
2013-11-12 20:02:00,26.2,13.5,-100.00,West,277,0.0,0.0,58,0.00,,,0.00,meteohub,2013-11-13 02:02:00,
2013-11-12 20:07:00,26.1,13.3,-100.00,West,277,0.0,0.0,58,0.00,,,0.00,meteohub,2013-11-13 02:07:00,
2013-11-12 20:12:00,25.7,12.9,-100.00,West,276,0.0,0.0,58,0.00,,,0.00,meteohub,2013-11-13 02:12:00,
2013-11-12 20:17:00,25.7,12.9,-100.00,West,277,0.0,0.0,58,0.00,,,0.00,meteohub,2013-11-13 02:17:00,
2013-11-12 20:22:00,25.9,13.5,-100.00,West,277,0.0,0.0,59,0.00,,,0.00,meteohub,2013-11-13 02:22:00,
2013-11-12 20:27:00,26.1,13.3,-100.00,West,276,0.0,0.0,58,0.00,,,0.00,meteohub,2013-11-13 02:27:00,
2013-11-12 20:32:00,25.9,13.1,-100.00,West,277,0.0,0.0,58,0.00,,,0.00,meteohub,2013-11-13 02:32:00,
2013-11-12 20:37:00,25.9,13.5,-100.00,West,276,0.0,0.0,59,0.00,,,0.00,meteohub,2013-11-13 02:37:00,
2013-11-12 20:42:00,25.7,13.3,-100.00,West,276,0.0,0.0,59,0.00,,,0.00,meteohub,2013-11-13 02:42:00,
2013-11-12 20:47:00,25.3,13.1,-100.00,West,277,0.0,0.0,59,0.00,,,0.00,meteohub,2013-11-13 02:47:00,
2013-11-12 20:52:00,25.2,13.3,-100.00,West,277,0.0,0.0,60,0.00,,,0.00,meteohub,2013-11-13 02:52:00,
2013-11-12 20:57:00,24.4,12.9,-100.00,West,276,0.0,0.0,61,0.00,,,0.00,meteohub,2013-11-13 02:57:00,
2013-11-12 21:02:00,24.1,12.9,-100.00,West,277,0.0,0.0,62,0.00,,,0.00,meteohub,2013-11-13 03:02:00,
2013-11-12 21:07:00,23.5,12.4,-100.00,West,276,0.0,0.0,62,0.00,,,0.00,meteohub,2013-11-13 03:07:00,
2013-11-12 21:12:00,23.0,12.2,-100.00,West,277,0.0,0.0,63,0.00,,,0.00,meteohub,2013-11-13 03:12:00,
2013-11-12 21:17:00,22.5,12.2,-100.00,West,276,0.0,0.0,64,0.00,,,0.00,meteohub,2013-11-13 03:17:00,
2013-11-12 21:22:00,22.1,12.2,-100.00,West,277,0.0,0.0,65,0.00,,,0.00,meteohub,2013-11-13 03:22:00,
2013-11-12 21:27:00,21.7,12.2,-100.00,West,277,0.0,0.0,66,0.00,,,0.00,meteohub,2013-11-13 03:27:00,
2013-11-12 21:32:00,21.4,12.2,-100.00,West,277,0.0,0.0,67,0.00,,,0.00,meteohub,2013-11-13 03:32:00,
2013-11-12 21:37:00,21.0,11.8,-100.00,West,277,0.0,0.0,67,0.00,,,0.00,meteohub,2013-11-13 03:37:00,
2013-11-12 21:42:00,20.7,11.8,-100.00,West,276,0.0,0.0,68,0.00,,,0.00,meteohub,2013-11-13 03:42:00,
2013-11-12 21:47:00,20.1,11.7,-100.00,West,277,0.0,0.0,69,0.00,,,0.00,meteohub,2013-11-13 03:47:00,
2013-11-12 21:52:00,19.9,11.7,-100.00,West,276,0.0,0.0,70,0.00,,,0.00,meteohub,2013-11-13 03:52:00,
2013-11-12 21:57:00,19.8,11.8,-100.00,West,276,0.0,0.0,71,0.00,,,0.00,meteohub,2013-11-13 03:57:00,
2013-11-12 22:02:00,19.8,12.2,-100.00,West,277,0.0,0.0,72,0.00,,,0.00,meteohub,2013-11-13 04:02:00,
2013-11-12 22:07:00,20.3,13.1,-100.00,West,276,0.0,0.0,73,0.00,,,0.00,meteohub,2013-11-13 04:07:00,
2013-11-12 22:12:00,20.7,13.5,-100.00,West,277,0.0,0.0,73,0.00,,,0.00,meteohub,2013-11-13 04:12:00,
2013-11-12 22:17:00,20.8,13.6,-100.00,West,277,0.0,0.0,73,0.00,,,0.00,meteohub,2013-11-13 04:17:00,
2013-11-12 22:22:00,20.8,13.6,-100.00,West,277,0.0,0.0,73,0.00,,,0.00,meteohub,2013-11-13 04:22:00,
2013-11-12 22:27:00,21.0,13.8,-100.00,West,277,0.0,0.0,73,0.00,,,0.00,meteohub,2013-11-13 04:27:00,
2013-11-12 22:32:00,21.4,14.4,-100.00,West,276,0.0,0.0,74,0.00,,,0.00,meteohub,2013-11-13 04:32:00,
2013-11-12 22:37:00,21.7,14.7,-100.00,West,277,0.0,0.0,74,0.00,,,0.00,meteohub,2013-11-13 04:37:00,
2013-11-12 22:42:00,21.6,14.2,-100.00,West,276,0.0,0.0,73,0.00,,,0.00,meteohub,2013-11-13 04:42:00,
2013-11-12 22:47:00,21.4,14.0,-100.00,West,277,0.0,0.0,73,0.00,,,0.00,meteohub,2013-11-13 04:47:00,
2013-11-12 22:52:00,20.8,13.6,-100.00,West,277,0.0,0.0,73,0.00,,,0.00,meteohub,2013-11-13 04:52:00,
2013-11-12 22:58:00,20.8,13.8,-100.00,West,277,0.0,0.0,74,0.00,,,0.00,meteohub,2013-11-13 04:58:00,
2013-11-12 23:01:00,20.8,14.2,-100.00,West,276,0.0,0.0,75,0.00,,,0.00,meteohub,2013-11-13 05:01:00,
2013-11-12 23:03:00,20.7,13.6,-100.00,West,277,0.0,0.0,74,0.00,,,0.00,meteohub,2013-11-13 05:03:00,
2013-11-12 23:08:00,20.8,14.2,-100.00,West,277,0.0,0.0,75,0.00,,,0.00,meteohub,2013-11-13 05:08:00,
2013-11-12 23:13:00,20.8,14.2,-100.00,West,276,0.0,0.0,75,0.00,,,0.00,meteohub,2013-11-13 05:13:00,
2013-11-12 23:18:00,20.8,14.2,-100.00,West,277,0.0,0.0,75,0.00,,,0.00,meteohub,2013-11-13 05:18:00,
2013-11-12 23:23:00,20.7,14.0,-100.00,West,276,0.0,0.0,75,0.00,,,0.00,meteohub,2013-11-13 05:23:00,
2013-11-12 23:28:00,20.1,13.8,-100.00,West,277,0.0,0.0,76,0.00,,,0.00,meteohub,2013-11-13 05:28:00,
2013-11-12 23:33:00,19.9,13.6,-100.00,West,277,0.0,0.0,76,0.00,,,0.00,meteohub,2013-11-13 05:33:00,
2013-11-12 23:38:00,19.9,13.8,-100.00,West,276,0.0,0.0,77,0.00,,,0.00,meteohub,2013-11-13 05:38:00,
2013-11-12 23:43:00,19.8,13.6,-100.00,West,277,0.0,0.0,77,0.00,,,0.00,meteohub,2013-11-13 05:43:00,
2013-11-12 23:48:00,19.8,13.6,-100.00,West,276,0.0,0.0,77,0.00,,,0.00,meteohub,2013-11-13 05:48:00,
2013-11-12 23:53:00,19.8,13.6,-100.00,West,277,0.0,0.0,77,0.00,,,0.00,meteohub,2013-11-13 05:53:00,
2013-11-12 23:58:00,20.1,14.4,-100.00,West,276,0.0,0.0,78,0.00,,,0.00,meteohub,2013-11-13 05:58:00,